When you browse on this site, cookies collect data to enhance your experience and personalize the content and advertising you see.
Visit our Privacy Policy to learn more. By continuing to use the site, you agree to this use of cookies and data.
  • In United Kingdom
  • List of Countries
  • For 7 days
  • Water Temperature
  • Satellite Maps
  • Weather Map
  • Weather Widgets
  • user-avatar
    Login

    Hourly Weather Minas

    Today, 20 March, Wednesday

    Time Temperature Precipitation Wind Pressure Humidity
    00:00 +12°C° 0 mm 3 mps 748 mmHg 74%
    01:00 +12°C° 0 mm 3 mps 748 mmHg 75%
    02:00 +12°C° 0 mm 2 mps 748 mmHg 78%
    03:00 +12°C° 0 mm 2 mps 748 mmHg 78%
    04:00 +12°C° 0 mm 2 mps 748 mmHg 77%
    05:00 +12°C° 0 mm 2 mps 748 mmHg 77%
    06:00 +13°C° 0 mm 3 mps 749 mmHg 72%
    07:00 +15°C° 0 mm 4 mps 749 mmHg 66%
    08:00 +17°C° 0 mm 5 mps 749 mmHg 61%
    09:00 +19°C° 0 mm 5 mps 750 mmHg 57%
    10:00 +19°C° 0 mm 5 mps 750 mmHg 53%
    11:00 +20°C° 0 mm 6 mps 750 mmHg 49%
    12:00 +20°C° 0 mm 6 mps 750 mmHg 49%
    13:00 +20°C° 0 mm 6 mps 750 mmHg 48%
    14:00 +20°C° 0 mm 6 mps 750 mmHg 47%
    15:00 +19°C° 0 mm 6 mps 749 mmHg 52%
    16:00 +17°C° 0 mm 5 mps 749 mmHg 56%
    17:00 +17°C° 0 mm 4 mps 749 mmHg 61%
    18:00 +14°C° 0 mm 3 mps 749 mmHg 70%
    19:00 +12°C° 0 mm 3 mps 750 mmHg 79%
    20:00 +12°C° 0 mm 2 mps 750 mmHg 88%
    21:00 +12°C° 0 mm 2 mps 750 mmHg 88%
    22:00 +12°C° 0 mm 1 mps 750 mmHg 88%
    23:00 +12°C° 0 mm 1 mps 751 mmHg 88%

    Tomorrow, 21 March, Thursday

    Time Temperature Precipitation Wind Pressure Humidity
    00:00 +12°C° 0 mm 1 mps 750 mmHg 86%
    01:00 +12°C° 0 mm 1 mps 750 mmHg 85%
    02:00 +12°C° 0 mm 1 mps 750 mmHg 83%
    03:00 +11°C° 0 mm 1 mps 750 mmHg 85%
    04:00 +11°C° 0 mm 1 mps 750 mmHg 86%
    05:00 +10°C° 0 mm 1 mps 750 mmHg 87%
    06:00 +12°C° 0 mm 1 mps 750 mmHg 81%
    07:00 +13°C° 0 mm 1 mps 751 mmHg 75%
    08:00 +15°C° 0 mm 1 mps 751 mmHg 69%
    09:00 +16°C° 0 mm 2 mps 751 mmHg 65%
    10:00 +17°C° 0 mm 3 mps 751 mmHg 61%
    11:00 +18°C° 0 mm 3 mps 751 mmHg 57%
    12:00 +18°C° 0 mm 3 mps 751 mmHg 56%
    13:00 +19°C° 0 mm 3 mps 750 mmHg 55%
    14:00 +19°C° 0 mm 3 mps 750 mmHg 53%
    15:00 +18°C° 0 mm 3 mps 750 mmHg 56%
    16:00 +18°C° 0 mm 3 mps 749 mmHg 59%
    17:00 +17°C° 0 mm 3 mps 749 mmHg 62%
    18:00 +14°C° 0 mm 3 mps 749 mmHg 70%
    19:00 +12°C° 0 mm 3 mps 749 mmHg 78%
    20:00 +10°C° 0 mm 3 mps 749 mmHg 86%
    21:00 +10°C° 0 mm 2 mps 749 mmHg 88%
    22:00 +10°C° 0 mm 2 mps 749 mmHg 89%
    23:00 +11°C° 0 mm 1 mps 749 mmHg 91%

    Day after tomorrow, 22 March, Friday

    Time Temperature Precipitation Wind Pressure Humidity
    00:00 +11°C° 0 mm 1 mps 749 mmHg 92%
    01:00 +11°C° 0 mm 1 mps 749 mmHg 92%
    02:00 +11°C° 0 mm 1 mps 749 mmHg 93%
    03:00 +10°C° 0 mm 0 mps 749 mmHg 92%
    04:00 +10°C° 0 mm 0 mps 749 mmHg 92%
    05:00 +10°C° 0 mm 0 mps 749 mmHg 92%
    06:00 +12°C° 0 mm 0 mps 749 mmHg 85%
    07:00 +13°C° 0 mm 0 mps 750 mmHg 79%
    08:00 +15°C° 0 mm 0 mps 750 mmHg 73%
    09:00 +17°C° 0 mm 0 mps 750 mmHg 66%
    10:00 +19°C° 0 mm 0 mps 750 mmHg 59%
    11:00 +21°C° 0 mm 0 mps 750 mmHg 52%
    12:00 +23°C° 0 mm 1 mps 749 mmHg 50%
    13:00 +23°C° 0 mm 1 mps 749 mmHg 49%
    14:00 +23°C° 0 mm 1 mps 748 mmHg 48%
    15:00 +21°C° 0.1 mm 2 mps 748 mmHg 54%
    16:00 +21°C° 0.1 mm 2 mps 748 mmHg 61%
    17:00 +20°C° 0.1 mm 3 mps 747 mmHg 68%
    18:00 +18°C° 0.1 mm 2 mps 747 mmHg 76%
    19:00 +16°C° 0.1 mm 2 mps 748 mmHg 85%
    20:00 +15°C° 0.1 mm 2 mps 748 mmHg 93%
    21:00 +14°C° 0 mm 2 mps 748 mmHg 93%
    22:00 +14°C° 0 mm 1 mps 747 mmHg 93%
    23:00 +13°C° 0 mm 1 mps 747 mmHg 93%

    23 March, Saturday

    Time Temperature Precipitation Wind Pressure Humidity
    00:00 +13°C° 0 mm 1 mps 747 mmHg 93%
    01:00 +13°C° 0 mm 1 mps 747 mmHg 93%
    02:00 +12°C° 0 mm 0 mps 747 mmHg 92%
    03:00 +12°C° 0 mm 0 mps 746 mmHg 92%
    04:00 +11°C° 0 mm 0 mps 746 mmHg 91%
    05:00 +12°C° 0 mm 1 mps 746 mmHg 91%
    06:00 +14°C° 0 mm 1 mps 747 mmHg 85%
    07:00 +16°C° 0 mm 1 mps 747 mmHg 80%
    08:00 +19°C° 0 mm 1 mps 747 mmHg 74%
    09:00 +21°C° 0 mm 1 mps 747 mmHg 66%
    10:00 +23°C° 0 mm 1 mps 747 mmHg 58%
    11:00 +24°C° 0 mm 2 mps 747 mmHg 50%
    12:00 +25°C° 0 mm 2 mps 746 mmHg 48%
    13:00 +26°C° 0 mm 2 mps 746 mmHg 45%
    14:00 +26°C° 0 mm 2 mps 745 mmHg 43%
    15:00 +25°C° 0 mm 1 mps 745 mmHg 48%
    16:00 +25°C° 0 mm 1 mps 745 mmHg 53%
    17:00 +24°C° 0 mm 1 mps 745 mmHg 58%
    18:00 +22°C° 0 mm 1 mps 745 mmHg 66%
    19:00 +20°C° 0 mm 1 mps 745 mmHg 73%
    20:00 +18°C° 0 mm 1 mps 745 mmHg 81%
    21:00 +17°C° 0 mm 2 mps 745 mmHg 84%
    22:00 +16°C° 0 mm 2 mps 745 mmHg 88%
    23:00 +16°C° 0 mm 2 mps 745 mmHg 91%

    24 March, Sunday

    Time Temperature Precipitation Wind Pressure Humidity
    00:00 +16°C° 0 mm 2 mps 744 mmHg 92%
    01:00 +16°C° 0 mm 2 mps 744 mmHg 94%
    02:00 +16°C° 0 mm 2 mps 744 mmHg 95%
    03:00 +16°C° 0 mm 2 mps 744 mmHg 95%
    04:00 +15°C° 0 mm 2 mps 744 mmHg 94%
    05:00 +15°C° 0 mm 2 mps 744 mmHg 93%
    06:00 +17°C° 0 mm 3 mps 744 mmHg 85%
    07:00 +18°C° 0 mm 4 mps 744 mmHg 77%
    08:00 +20°C° 0 mm 4 mps 744 mmHg 69%
    09:00 +22°C° 0 mm 5 mps 744 mmHg 61%
    10:00 +24°C° 0 mm 6 mps 744 mmHg 54%
    11:00 +26°C° 0 mm 6 mps 744 mmHg 46%
    12:00 +27°C° 0 mm 6 mps 744 mmHg 46%
    13:00 +27°C° 0 mm 6 mps 743 mmHg 46%
    14:00 +27°C° 0 mm 6 mps 743 mmHg 45%
    15:00 +26°C° 0 mm 5 mps 743 mmHg 47%
    16:00 +23°C° 0 mm 5 mps 743 mmHg 48%
    17:00 +21°C° 0 mm 4 mps 743 mmHg 50%
    18:00 +19°C° 0 mm 3 mps 743 mmHg 55%
    19:00 +17°C° 0 mm 3 mps 743 mmHg 59%
    20:00 +15°C° 0 mm 2 mps 743 mmHg 64%
    21:00 +15°C° 0 mm 2 mps 743 mmHg 66%
    22:00 +14°C° 0 mm 2 mps 743 mmHg 68%
    23:00 +14°C° 0 mm 2 mps 743 mmHg 70%

    25 March, Monday

    Time Temperature Precipitation Wind Pressure Humidity
    00:00 +13°C° 0 mm 2 mps 743 mmHg 76%
    01:00 +13°C° 0 mm 2 mps 743 mmHg 81%
    02:00 +12°C° 0 mm 3 mps 743 mmHg 87%
    03:00 +11°C° 0 mm 3 mps 743 mmHg 89%
    04:00 +11°C° 0 mm 3 mps 743 mmHg 90%
    05:00 +11°C° 0 mm 3 mps 743 mmHg 91%
    06:00 +13°C° 0 mm 4 mps 743 mmHg 86%
    07:00 +14°C° 0 mm 5 mps 744 mmHg 80%
    08:00 +16°C° 0 mm 5 mps 744 mmHg 74%
    09:00 +17°C° 0 mm 5 mps 744 mmHg 72%
    10:00 +17°C° 0 mm 6 mps 744 mmHg 69%
    11:00 +19°C° 0 mm 6 mps 744 mmHg 67%
    12:00 +19°C° 0 mm 6 mps 744 mmHg 66%
    13:00 +20°C° 0 mm 6 mps 744 mmHg 65%
    14:00 +20°C° 0 mm 6 mps 743 mmHg 64%
    15:00 +20°C° 0 mm 5 mps 744 mmHg 65%
    16:00 +19°C° 0 mm 4 mps 744 mmHg 66%
    17:00 +19°C° 0 mm 3 mps 744 mmHg 68%
    18:00 +18°C° 0 mm 3 mps 744 mmHg 73%
    19:00 +16°C° 0 mm 2 mps 744 mmHg 79%
    20:00 +15°C° 0 mm 2 mps 744 mmHg 84%
    21:00 +15°C° 0 mm 2 mps 744 mmHg 86%
    22:00 +14°C° 0 mm 2 mps 744 mmHg 88%
    23:00 +14°C° 0 mm 2 mps 744 mmHg 90%
    Show more